Weather History for PAED - August, 2013

Change the Weather History Date:

Saturday, August 24, 2013

  Actual Average Record
Temperature  
Mean Temperature 58 °F -  
Max Temperature 69 °F 62 °F 77 °F (2004)
Min Temperature 49 °F 48 °F 39 °F (1969)
Degree Days  
Heating Degree Days 6    
Growing Degree Days 8 (Base 50)    
Moisture  
Dew Point 50 °F    
Average Humidity 89    
Maximum Humidity 100    
Minimum Humidity 37    
Precipitation  
Precipitation 0.02 in - - ()
Sea Level Pressure  
Sea Level Pressure 29.61 in    
Wind  
Wind Speed 5 mph (NNE)    
Max Wind Speed 10 mph    
Max Gust Speed -    
Visibility 6 miles    
Events Fog , Rain    
Averages and records for this station are not official NWS values.
T = Trace of Precipitation, MM = Missing Value Source: NWS Daily Summary

Daily Weather History Graph

Daily Weather History Graph

Search for Another Location

Airport or City:

Trip Planner

Search our weather history database for the weather conditions in past years. The results will help you decide how hot, cold, wet, or windy it might be!

Date:

Astronomy

Aug. 24, 2013 Rise Set
Actual Time 6:31 AM AKDT 9:29 PM AKDT
Civil Twilight 5:41 AM AKDT 10:18 PM AKDT
Nautical Twilight 4:31 AM AKDT 11:27 PM AKDT
Astronomical Twilight 2:33 AM AKDT 1:40 AM AKDT
Moon 9:55 PM AKDT (8/24) 12:10 PM AKDT (8/24)
Length of Visible Light 16h 37m
Length of Day
14h 57m
Waning Gibbous, 83% of the Moon is Illuminated
Aug 24
Waning Gibbous
Aug 28
Last Quarter
Sep 5
New
Sep 12
First Quarter
Sep 19
Full

Hourly Weather History & Observations

Time (AKDT) Temp. Dew Point Humidity Pressure Visibility Wind Dir Wind Speed Gust Speed Precip Events Conditions
12:05 AM 55.4 °F 53.6 °F 94% 29.57 in 8.0 mi NE 6.9 mph - N/A Rain Light Rain
12:06 AM 55.4 °F 53.6 °F 94% 29.57 in 8.0 mi ENE 5.8 mph - N/A Rain Light Rain
12:12 AM 55.4 °F 51.8 °F 88% 29.57 in 8.0 mi East 5.8 mph - N/A Rain Light Rain
12:16 AM 55.4 °F 51.8 °F 88% 29.57 in 9.0 mi ESE 3.5 mph - N/A Rain Light Rain
12:17 AM 55.4 °F 51.8 °F 88% 29.57 in 9.0 mi Calm Calm - N/A Rain Light Rain
12:24 AM 55.4 °F 51.8 °F 88% 29.57 in 10.0 mi Calm Calm - N/A   Mostly Cloudy
12:33 AM 53.6 °F 51.8 °F 94% 29.57 in 10.0 mi Calm Calm - N/A   Overcast
12:55 AM 53.4 °F 52.5 °F 97% 29.58 in 10.0 mi NE 8.1 mph - 0.02 in   Overcast
1:55 AM 52.9 °F 52.5 °F 99% 29.59 in 10.0 mi NNE 6.9 mph - N/A   Clear
2:55 AM 52.5 °F 49.5 °F 89% 29.59 in 10.0 mi ENE 6.9 mph - N/A   Scattered Clouds
3:55 AM 49.8 °F 48.9 °F 97% 29.59 in 10.0 mi Calm Calm - N/A   Clear
4:26 AM 51.8 °F 50.0 °F 94% 29.59 in 10.0 mi Calm Calm - N/A   Mostly Cloudy
4:41 AM 50.0 °F 50.0 °F 100% 29.60 in 10.0 mi Calm Calm - N/A   Overcast
4:44 AM 50.0 °F 50.0 °F 100% 29.60 in 10.0 mi Calm Calm - N/A   Overcast
4:55 AM 51.1 °F 49.6 °F 95% 29.60 in 10.0 mi North 4.6 mph - N/A   Overcast
5:05 AM 50.0 °F 50.0 °F 100% 29.60 in 10.0 mi Calm Calm - N/A   Mostly Cloudy
5:06 AM 50.0 °F 50.0 °F 100% 29.60 in 10.0 mi Calm Calm - N/A   Mostly Cloudy
5:08 AM 50.0 °F 50.0 °F 100% 29.60 in 10.0 mi Calm Calm - N/A   Mostly Cloudy
5:15 AM 51.8 °F 50.0 °F 94% 29.60 in 10.0 mi North 4.6 mph - N/A   Mostly Cloudy
5:24 AM 51.8 °F 50.0 °F 94% 29.60 in 1.5 mi North 3.5 mph - N/A   Mostly Cloudy
5:25 AM 51.8 °F 50.0 °F 94% 29.60 in 1.2 mi North 3.5 mph - N/A   Mostly Cloudy
5:27 AM 51.8 °F 50.0 °F 94% 29.60 in 1.0 mi North 4.6 mph - N/A   Mist
5:28 AM 51.8 °F 50.0 °F 94% 29.60 in 1.0 mi North 3.5 mph - N/A   Mist
5:30 AM 51.8 °F 50.0 °F 94% 29.60 in 1.2 mi North 3.5 mph - N/A   Overcast
5:31 AM 51.8 °F 51.8 °F 100% 29.60 in 1.2 mi North 4.6 mph - N/A   Overcast
5:33 AM 51.8 °F 51.8 °F 100% 29.60 in 1.5 mi North 3.5 mph - N/A   Overcast
5:34 AM 51.8 °F 51.8 °F 100% 29.60 in 2.0 mi North 3.5 mph - N/A   Overcast
5:36 AM 51.8 °F 51.8 °F 100% 29.60 in 3.0 mi North 3.5 mph - N/A   Overcast
5:43 AM 51.8 °F 51.8 °F 100% 29.60 in 3.0 mi North 4.6 mph - N/A   Overcast
5:47 AM 51.8 °F 51.8 °F 100% 29.60 in 2.5 mi NNE 5.8 mph - N/A   Overcast
5:55 AM 51.1 °F 51.1 °F 100% 29.60 in 1.5 mi NE 4.6 mph - N/A   Overcast
5:58 AM 51.8 °F 51.8 °F 100% 29.61 in 1.8 mi NNE 3.5 mph - N/A   Overcast
6:01 AM 50.0 °F 50.0 °F 100% 29.61 in 2.0 mi NE 3.5 mph - N/A   Overcast
6:10 AM 50.0 °F 50.0 °F 100% 29.61 in 1.8 mi ENE 3.5 mph - N/A   Overcast
6:11 AM 50.0 °F 50.0 °F 100% 29.60 in 1.5 mi NE 3.5 mph - N/A   Overcast
6:13 AM 50.0 °F 50.0 °F 100% 29.60 in 1.2 mi NE 5.8 mph - N/A   Overcast
6:15 AM 50.0 °F 50.0 °F 100% 29.60 in 1.0 mi NNE 9.2 mph - N/A   Overcast
6:17 AM 50.0 °F 50.0 °F 100% 29.60 in 0.8 mi NNE 10.4 mph - N/A   Overcast
6:19 AM 50.0 °F 50.0 °F 100% 29.60 in 0.5 mi NE 9.2 mph - N/A Fog Fog
6:23 AM 50.0 °F 50.0 °F 100% 29.60 in 0.5 mi NE 9.2 mph - N/A Fog Fog
6:25 AM 50.0 °F 50.0 °F 100% 29.60 in 0.5 mi NNE 9.2 mph - N/A Fog Fog
6:29 AM 50.0 °F 50.0 °F 100% 29.61 in 0.5 mi NNE 9.2 mph - N/A Fog Fog
6:30 AM 50.0 °F 50.0 °F 100% 29.61 in 0.8 mi NNE 9.2 mph - N/A   Overcast
6:32 AM 50.0 °F 50.0 °F 100% 29.61 in 0.8 mi NNE 10.4 mph - N/A   Overcast
6:34 AM 50.0 °F 50.0 °F 100% 29.61 in 1.0 mi NE 10.4 mph - N/A   Overcast
6:36 AM 50.0 °F 50.0 °F 100% 29.61 in 1.0 mi NNE 9.2 mph - N/A   Overcast
6:41 AM 50.0 °F 50.0 °F 100% 29.61 in 1.2 mi NNE 9.2 mph - N/A   Overcast
6:45 AM 50.0 °F 50.0 °F 100% 29.61 in 1.5 mi NE 8.1 mph - N/A   Overcast
6:55 AM 50.5 °F 50.5 °F 100% 29.61 in 2.0 mi NE 8.1 mph - N/A   Overcast
7:00 AM 50.0 °F 50.0 °F 100% 29.61 in 3.0 mi NE 9.2 mph - N/A   Overcast
7:45 AM 50.0 °F 50.0 °F 100% 29.63 in 1.5 mi East 5.8 mph - N/A   Overcast
7:55 AM 50.0 °F 50.0 °F 100% 29.63 in 1.0 mi Calm Calm - N/A   Overcast
8:09 AM 50.0 °F 50.0 °F 100% 29.64 in 2.5 mi NE 5.8 mph - N/A   Overcast
8:19 AM 50.0 °F 50.0 °F 100% 29.64 in 7.0 mi East 3.5 mph - N/A   Scattered Clouds
8:55 AM 51.6 °F 47.8 °F 87% 29.64 in 10.0 mi Variable 3.5 mph - N/A   Scattered Clouds
9:55 AM 54.3 °F 46.4 °F 75% 29.64 in 10.0 mi Calm Calm - N/A   Clear
10:55 AM 55.8 °F 46.8 °F 72% 29.65 in 10.0 mi NNW 4.6 mph - N/A   Clear
11:55 AM 58.8 °F 46.9 °F 65% 29.65 in 10.0 mi North 3.5 mph - N/A   Clear
12:55 PM 60.8 °F 47.5 °F 62% 29.65 in 10.0 mi Variable 4.6 mph - N/A   Clear
1:55 PM 64.4 °F 46.4 °F 52% 29.65 in 10.0 mi NNE 4.6 mph - N/A   Clear
2:55 PM 66.2 °F 44.2 °F 45% 29.64 in 10.0 mi ENE 8.1 mph - N/A   Clear
3:55 PM 66.7 °F 46.6 °F 48% 29.64 in 10.0 mi Calm Calm - N/A   Clear
4:55 PM 65.8 °F 49.5 °F 55% 29.65 in 10.0 mi NW 8.1 mph - N/A   Clear
5:55 PM 67.1 °F 46.2 °F 47% 29.65 in 10.0 mi WNW 4.6 mph - N/A   Clear
6:55 PM 68.2 °F 41.2 °F 37% 29.64 in 10.0 mi Calm Calm - N/A   Clear
7:55 PM 66.2 °F 46.2 °F 49% 29.65 in 10.0 mi Calm Calm - N/A   Clear
8:55 PM 61.2 °F 46.4 °F 58% 29.65 in 10.0 mi NE 8.1 mph - N/A   Clear
9:55 PM 57.7 °F 46.8 °F 67% 29.67 in 10.0 mi NNE 8.1 mph - N/A   Clear
10:55 PM 56.5 °F 42.4 °F 59% 29.69 in 10.0 mi NE 5.8 mph - N/A   Clear
11:55 PM 52.3 °F 44.1 °F 73% 29.70 in 10.0 mi Calm Calm - N/A   Clear